Home > Weather > Hartberg > Past weeks

Flag for Austria Past Weather in Hartberg, Styria, Austria — Yesterday and Last 2 Weeks

Now
70 °F

Passing clouds.


Feels Like: 70 °F
Forecast: 60 / 82 °F
Wind: 3 mph from Northwest

Location: Graz-Thalerhof-Flughafen

Current Time: Jul 2, 2016 at 12:39:22 AM

Latest Report: Jul 1, 2016 at 11:50 PM


Visibility: N/A

Pressure: 30.07 "Hg

Humidity: 83%

Dew Point: 64 °F

Location of HartbergLocation

Past Weather in Hartberg — Graph

°F

Hartberg Temperature Yesterday

Maximum temperature yesterday: 81 °F (at 3:20 PM)
Minimum temperature yesterday: 61 °F (at 12:20 AM)
Average temperature yesterday: 71 °F

High & Low Weather Summary for the Past Weeks

 TemperatureHumidityPressure
High88 °F (Jun 24, 3:20 PM)100% (Jun 19, 6:20 AM)30.30 "Hg (Jun 19, 6:20 AM)
Low50 °F (Jun 28, 4:50 AM)26% (Jun 17, 3:50 PM)29.53 "Hg (Jun 17, 2:50 AM)
Average69 °F72%30.05 "Hg
* Reported Jun 16 11:20 PM — Jul 1 11:20 PM, Hartberg, Weather by CustomWeather, © 2016

Note: Actual official high and low records may vary slightly from our data, if they occured in-between our weather recording intervals... More about our weather records

Advertising

Hartberg Weather History for the Previous 24 Hours

Scroll right to see more
 ConditionsComfort  
Time TempWeatherWind HumidityBarometerVisibility
11:20 PM
Fri, Jul 1
68 °FPassing clouds.1 mph88%30.09 "HgN/A
10:50 PM70 °FPassing clouds.2 mph83%30.07 "HgN/A
10:20 PM70 °FPassing clouds.2 mph78%30.07 "HgN/A
9:50 PM72 °FPassing clouds.1 mph73%30.07 "HgN/A
9:20 PM73 °FPassing clouds.2 mph69%30.07 "HgN/A
8:50 PM73 °FPassing clouds.1 mph69%30.07 "HgN/A
8:20 PM77 °FPassing clouds.3 mph61%30.07 "HgN/A
7:50 PM79 °FPassing clouds.3 mph54%30.04 "HgN/A
7:20 PM79 °FPassing clouds.5 mph61%30.04 "HgN/A
6:50 PM81 °FPassing clouds.5 mph51%30.04 "HgN/A
6:20 PM81 °FPassing clouds.6 mph51%30.04 "HgN/A
5:50 PM81 °FPassing clouds.6 mph54%30.04 "HgN/A
5:20 PM81 °FPassing clouds.6 mph51%30.04 "HgN/A
4:50 PM79 °FPassing clouds.5 mph58%30.07 "HgN/A
4:20 PM81 °FPassing clouds.5 mph54%30.07 "HgN/A
3:50 PM79 °FPassing clouds.5 mph54%30.07 "HgN/A
3:20 PM81 °FPassing clouds.6 mph54%30.07 "HgN/A
2:50 PM79 °FPassing clouds.2 mph58%30.07 "HgN/A
2:20 PM79 °FPassing clouds.6 mph54%30.09 "HgN/A
1:50 PM79 °FScattered clouds.3 mph51%30.09 "HgN/A
1:20 PM77 °FScattered clouds.2 mph61%30.09 "HgN/A
12:50 PM77 °FScattered clouds.3 mph57%30.09 "HgN/A
12:20 PM75 °FPartly sunny.6 mph65%30.09 "HgN/A
11:50 AM73 °FScattered clouds.5 mph69%30.12 "HgN/A
11:20 AM73 °FBroken clouds.5 mph69%30.09 "HgN/A
10:50 AM72 °FBroken clouds.1 mph73%30.09 "HgN/A
10:20 AM70 °FBroken clouds.1 mph83%30.12 "HgN/A
9:50 AM68 °FBroken clouds.1 mph83%30.09 "HgN/A
9:20 AM66 °FPartly sunny.2 mph88%30.09 "HgN/A
8:50 AM66 °FPartly sunny.1 mph88%30.09 "HgN/A
8:20 AM66 °FPartly sunny.1 mph88%30.09 "HgN/A
7:50 AM64 °FPartly sunny.2 mph94%30.09 "HgN/A
7:20 AM64 °FPartly sunny.1 mph94%30.07 "HgN/A
6:50 AM63 °FPartly sunny.1 mph100%30.07 "HgN/A
6:20 AM63 °FSunny.1 mph100%30.07 "Hg10 mi
5:50 AM63 °FClear.2 mph100%30.07 "Hg10 mi
5:20 AM63 °FPassing clouds.1 mph100%30.04 "HgN/A
4:50 AM63 °FPassing clouds.3 mph94%30.04 "HgN/A
4:20 AM63 °FPassing clouds.1 mph94%30.04 "HgN/A
3:50 AM63 °FPassing clouds.3 mph94%30.04 "HgN/A
3:20 AM63 °FPassing clouds.1 mph94%30.04 "HgN/A
2:50 AM63 °FPassing clouds.2 mph94%30.04 "HgN/A
2:20 AM63 °FPassing clouds.2 mph94%30.04 "HgN/A
1:50 AM63 °FPassing clouds.5 mph94%30.04 "HgN/A
1:20 AM61 °FPassing clouds.2 mph100%30.04 "Hg6 mi
12:50 AM61 °FPassing clouds.3 mph94%30.04 "HgN/A
12:20 AM61 °FPassing clouds.7 mph94%30.04 "HgN/A
Weather by CustomWeather, © 2016

See weather overviewHow to use our weather pages